Chesterfield, MO

7:34 PM CST on December 03, 2016 (GMT -0600)
Spirit Of Saint Louis

Weather History for KSUS - May, 2014

Change the Weather History Date:

Tuesday, May 13, 2014

  Actual Average Record
Temperature  
Mean Temperature 61 °F -  
Max Temperature 68 °F 74 °F 84 °F (1998)
Min Temperature 51 °F 52 °F 36 °F (2013)
Degree Days  
Heating Degree Days 4    
Growing Degree Days 11 (Base 50)    
Moisture  
Dew Point 55 °F    
Average Humidity 89    
Maximum Humidity 94    
Minimum Humidity 77    
Precipitation  
Precipitation 0.17 in - - ()
Sea Level Pressure  
Sea Level Pressure 30.04 in    
Wind  
Wind Speed 7 mph (WNW)    
Max Wind Speed 14 mph    
Max Gust Speed 18 mph    
Visibility 8 miles    
Events Rain    
Averages and records for this station are not official NWS values.
T = Trace of Precipitation, MM = Missing Value Source: NWS Daily Summary

Daily Weather History Graph

Daily Weather History Graph

Search for Another Location

Airport or City:

Trip Planner

Search our weather history database for the weather conditions in past years. The results will help you decide how hot, cold, wet, or windy it might be!

Date:

Astronomy

May. 13, 2014 Rise Set
Actual Time 5:52 AM CDT 8:05 PM CDT
Civil Twilight 5:22 AM CDT 8:35 PM CDT
Nautical Twilight 4:46 AM CDT 9:12 PM CDT
Astronomical Twilight 4:06 AM CDT 9:52 PM CDT
Moon 7:08 PM CDT (5/13) 5:07 AM CDT (5/13)
Length of Visible Light 15h 12m
Length of Day
14h 13m
Waxing Gibbous, 99% of the Moon is Illuminated
May 13
Waxing Gibbous
May 14
Full
May 21
Last Quarter
May 28
New
Jun 5
First Quarter

Hourly Weather History & Observations

Time (CDT) Temp. Dew Point Humidity Pressure Visibility Wind Dir Wind Speed Gust Speed Precip Events Conditions
12:54 AM 68.0 °F 64.4 °F 88% 29.92 in 10.0 mi SW 8.1 mph - N/A Rain Light Rain
1:54 AM 66.9 °F 64.0 °F 90% 29.93 in 7.0 mi SSW 4.6 mph - 0.03 in Rain Light Rain
2:54 AM 66.0 °F 64.0 °F 93% 29.89 in 10.0 mi SSE 5.8 mph - 0.03 in Rain Light Rain
3:45 AM 66.2 °F 64.4 °F 94% 29.91 in 10.0 mi West 4.6 mph - 0.01 in   Mostly Cloudy
3:52 AM 66.2 °F 64.4 °F 94% 29.91 in 10.0 mi SW 4.6 mph - N/A Rain Light Rain
3:54 AM 66.0 °F 64.0 °F 93% 29.89 in 10.0 mi SW 5.8 mph - 0.01 in Rain Light Rain
4:18 AM 62.6 °F 60.8 °F 94% 29.92 in 9.0 mi WNW 10.4 mph - 0.04 in Rain Light Rain
4:26 AM 62.6 °F 60.8 °F 94% 29.92 in 10.0 mi WNW 8.1 mph - 0.04 in   Overcast
4:51 AM 62.6 °F 59.0 °F 88% 29.94 in 10.0 mi West 5.8 mph - 0.04 in   Overcast
4:54 AM 62.1 °F 59.0 °F 90% 29.93 in 10.0 mi West 5.8 mph - 0.04 in   Overcast
5:29 AM 60.8 °F 57.2 °F 88% 29.96 in 5.0 mi West 10.4 mph - 0.01 in Rain Light Rain
5:54 AM 59.0 °F 57.0 °F 93% 29.95 in 3.0 mi WNW 8.1 mph - 0.02 in Rain Light Rain
6:04 AM 59.0 °F 57.2 °F 94% 29.96 in 4.0 mi NW 5.8 mph - 0.00 in Rain Light Rain
6:40 AM 59.0 °F 57.2 °F 94% 30.00 in 4.0 mi NW 8.1 mph - 0.00 in Rain Light Rain
6:48 AM 57.2 °F 55.4 °F 94% 30.00 in 2.0 mi WNW 9.2 mph - 0.00 in Rain Light Rain
6:49 AM 57.9 °F 55.9 °F 93% 29.99 in 2.0 mi WNW 9.2 mph - 0.00 in Rain Light Rain
6:59 AM 57.2 °F 55.4 °F 94% 30.01 in 3.0 mi WNW 9.2 mph - 0.00 in   Overcast
7:06 AM 57.2 °F 55.4 °F 94% 30.01 in 2.5 mi WNW 8.1 mph - 0.00 in   Overcast
7:54 AM 57.2 °F 55.4 °F 94% 30.03 in 3.0 mi West 8.1 mph - N/A Rain Light Rain
8:54 AM 57.0 °F 54.0 °F 89% 30.04 in 6.0 mi West 8.1 mph - 0.00 in Rain Light Rain
9:54 AM 57.0 °F 54.0 °F 89% 30.06 in 10.0 mi West 10.4 mph - 0.00 in   Overcast
10:54 AM 57.2 °F 53.6 °F 88% 30.08 in 10.0 mi WNW 8.1 mph - N/A Rain Light Rain
11:28 AM 55.4 °F 53.6 °F 94% 30.09 in 8.0 mi WNW 11.5 mph - 0.00 in Rain Light Rain
11:54 AM 57.0 °F 53.1 °F 87% 30.09 in 10.0 mi WNW 12.7 mph - 0.00 in Rain Light Rain
12:54 PM 55.9 °F 53.1 °F 90% 30.09 in 10.0 mi WNW 11.5 mph - 0.03 in Rain Light Rain
1:54 PM 55.9 °F 52.0 °F 87% 30.11 in 10.0 mi WNW 13.8 mph 18.4 mph 0.00 in   Overcast
2:54 PM 55.0 °F 51.1 °F 86% 30.13 in 5.0 mi NW 8.1 mph - 0.00 in Rain Light Rain
3:54 PM 55.9 °F 52.0 °F 87% 30.13 in 7.0 mi NW 9.2 mph - 0.01 in Rain Light Rain
4:54 PM 55.0 °F 50.0 °F 83% 30.14 in 10.0 mi NW 11.5 mph - 0.00 in   Overcast
5:54 PM 55.0 °F 50.0 °F 83% 30.14 in 10.0 mi NW 9.2 mph - 0.00 in   Overcast
6:54 PM 55.4 °F 48.2 °F 77% 30.15 in 10.0 mi NW 9.2 mph - N/A   Overcast
7:54 PM 55.0 °F 48.9 °F 80% 30.16 in 10.0 mi NW 6.9 mph - N/A   Overcast
8:54 PM 55.0 °F 48.0 °F 77% 30.17 in 10.0 mi NNW 4.6 mph - N/A   Overcast
9:54 PM 54.0 °F 48.0 °F 80% 30.20 in 10.0 mi NW 4.6 mph - N/A   Scattered Clouds
10:54 PM 54.0 °F 48.0 °F 80% 30.21 in 10.0 mi Calm Calm - N/A   Clear
11:54 PM 51.1 °F 48.9 °F 92% 30.21 in 10.0 mi Calm Calm - N/A   Clear